Theta_e
349 348 348 347 345 346 348 348 349 349 349 350 351 351 353 355 357 358 359 358 357 357 357 356 356 356 360 356 356 356 356 352 354 353 353 353 350 350 352 353 352 350
348 351 353 350 349 351 349 349 351 351 350 350 353 352 353 355 356 357 357 357 357 357 357 356 356 356 355 357 355 352 352 354 351 361 353 353 352 353 355 354 353 352
347 350 352 349 348 349 350 350 352 352 351 352 353 354 354 356 356 356 356 357 357 357 356 355 355 356 355 356 356 354 353 352 352 353 353 351 351 352 353 356 354 354
347 349 352 353 350 350 351 351 350 352 352 352 353 355 356 357 356 356 355 362 356 356 356 355 355 355 355 356 357 354 353 354 354 352 352 353 354 355 353 355 358 357
349 348 350 352 352 352 352 351 351 351 352 352 353 354 355 356 356 355 355 356 356 356 356 356 355 355 356 356 357 355 354 354 354 353 352 351 351 353 355 357 355 354
350 349 350 351 352 352 353 351 351 351 351 351 352 354 353 354 355 355 355 355 356 356 356 357 356 355 357 356 356 356 356 355 354 353 353 351 353 353 356 356 354 353
351 351 350 351 351 352 353 352 352 353 352 352 352 351 352 352 354 354 354 355 356 355 355 356 356 355 356 356 356 355 355 355 354 352 352 352 352 352 354 354 355 353
348 347 348 350 351 349 350 351 351 352 352 352 351 350 350 351 352 354 354 354 355 355 354 355 356 355 356 356 355 355 355 357 356 352 351 351 349 350 352 355 353 350
347 347 347 348 348 347 349 350 350 350 351 351 351 351 350 350 351 352 353 353 354 354 354 354 354 355 355 355 354 354 354 355 357 354 353 352 351 351 352 353 351 350
347 347 348 348 348 346 346 345 346 346 349 350 350 350 350 350 350 351 351 352 353 353 353 353 353 354 354 354 354 354 354 354 354 354 353 353 352 352 352 352 352 350
347 347 347 347 348 348 347 347 346 344 346 347 348 349 349 348 349 350 350 351 352 352 352 352 352 353 353 353 353 354 354 354 353 352 352 352 353 352 357 352 352 352
347 347 347 347 348 348 349 349 348 346 345 345 346 347 347 348 347 348 350 350 351 351 352 352 352 352 352 352 352 353 353 353 353 352 352 351 351 351 352 353 353 352
347 347 347 348 349 349 350 350 350 349 347 345 347 347 345 345 346 347 348 349 351 351 351 351 351 351 351 351 351 351 351 352 352 351 351 351 350 351 352 352 352 353
347 348 349 349 349 349 350 351 351 350 349 348 347 346 349 348 344 345 346 348 348 350 351 352 351 350 350 350 351 351 350 350 351 351 351 350 350 350 351 351 352 352
345 348 349 349 351 349 348 348 349 348 349 348 349 349 351 351 350 346 345 346 347 347 349 351 351 351 351 351 350 350 350 350 350 351 351 350 350 349 349 349 349 351
346 348 349 348 347 346 345 345 346 347 349 348 350 351 351 351 349 349 345 345 346 346 347 348 349 351 354 347 350 352 350 350 349 349 350 350 349 349 349 349 349 349
347 347 348 347 348 348 347 348 348 347 348 350 350 350 348 347 350 347 347 344 344 346 347 347 348 349 345 337 337 343 353 349 348 348 348 348 348 347 347 347 348 348
346 345 345 346 345 345 346 348 350 350 347 345 346 348 348 351 350 348 347 347 346 344 346 348 348 347 337 333 333 333 343 352 350 349 349 347 347 347 347 347 347 347
344 343 343 343 344 344 345 346 347 346 346 347 348 350 350 347 346 347 347 348 348 345 344 345 348 343 336 334 332 331 331 342 349 349 348 348 347 347 347 347 346 346
340 342 341 342 343 343 343 344 345 345 347 348 350 351 350 349 349 347 347 345 346 346 345 347 347 346 335 331 329 328 329 333 345 347 349 349 349 348 348 347 347 346
335 336 337 340 342 342 341 341 342 342 342 343 347 347 347 348 350 349 348 350 350 349 347 349 350 339 333 329 324 322 324 329 340 344 345 347 348 349 349 349 349 349
330 332 333 334 335 338 338 337 338 340 341 342 346 342 341 342 343 346 347 348 349 350 348 348 351 336 330 328 326 324 323 333 335 337 339 342 344 346 348 349 350 349
326 327 330 331 330 329 330 334 337 338 339 343 343 342 341 341 339 342 344 345 346 347 347 347 349 342 333 327 324 323 327 334 334 336 336 337 339 341 344 346 348 349
324 325 325 324 323 323 326 328 331 335 337 340 341 340 340 341 342 342 342 342 341 343 345 345 345 342 326 324 321 322 327 337 337 336 336 337 338 339 340 342 344 353
323 325 324 322 321 322 325 325 327 331 335 338 337 338 339 338 342 341 341 341 342 341 344 344 344 343 329 324 321 320 329 337 337 336 336 337 338 338 339 340 340 347
322 324 324 322 320 321 322 324 328 326 326 330 333 336 337 338 340 340 338 339 341 344 343 344 344 345 344 329 322 321 319 334 337 336 337 338 338 339 339 340 341 341
Wind_Speed
5 5 5 5 5 5 5 5 5 5 6 5 6 6 6 5 3 4 4 4 4 4 4 4 3 3 3 2 1 0 1 2 2 2 1 1 2 2 4 4 3 2
5 5 4 4 3 3 3 4 5 6 6 5 6 5 4 3 4 4 4 4 4 4 4 4 4 3 3 3 2 2 1 1 1 0 1 1 2 1 2 3 3 3
5 4 4 4 5 4 5 4 4 5 6 6 5 4 5 4 4 4 4 4 5 5 4 4 4 3 3 3 3 3 3 2 3 1 1 1 1 1 2 2 2 3
6 6 5 4 3 4 3 4 4 4 3 4 5 6 5 5 5 5 5 5 5 5 4 3 4 4 3 4 3 3 3 3 3 1 1 1 1 1 2 1 2 3
7 5 4 4 4 3 3 5 6 6 5 6 6 5 5 4 5 5 5 5 5 5 4 5 4 4 4 4 4 4 3 4 3 2 2 2 3 1 2 1 2 3
5 5 5 6 6 6 6 6 6 6 6 5 6 5 5 5 5 5 5 6 5 6 5 5 5 5 4 4 4 4 4 4 4 3 3 3 3 2 2 2 1 3
6 5 5 5 6 6 7 7 6 6 6 6 4 5 5 5 5 5 6 6 6 6 6 6 5 5 4 4 4 4 4 4 3 3 3 4 3 4 3 3 3 3
4 3 3 3 3 3 4 5 5 5 5 4 5 6 5 6 6 5 5 6 6 6 6 5 5 5 5 4 5 4 4 4 4 3 3 4 3 4 5 4 3 3
7 6 6 5 5 4 4 4 4 4 3 5 6 6 5 6 6 6 6 6 6 6 6 5 5 5 4 5 5 5 6 5 4 4 5 5 4 5 5 4 3 3
7 6 7 6 5 4 4 4 4 4 4 4 4 4 5 5 6 6 5 5 6 6 6 6 6 5 5 5 6 6 6 6 5 5 5 5 5 5 5 4 4 4
5 5 5 5 5 4 4 2 1 1 2 4 5 5 4 4 4 4 5 5 6 7 7 7 7 7 6 6 6 5 6 6 5 5 5 5 5 5 5 4 4 4
5 4 4 5 4 4 4 3 3 2 2 2 3 6 5 5 4 4 5 6 7 7 7 7 7 7 7 7 7 6 6 6 6 5 6 5 5 5 5 4 5 5
6 6 5 4 4 5 3 3 4 4 3 3 2 2 3 4 4 5 5 5 7 7 7 7 8 7 7 7 7 6 6 6 6 6 6 5 5 6 5 5 5 5
5 5 5 5 4 3 3 3 3 3 4 4 3 3 3 2 3 4 5 5 6 6 7 7 7 7 7 7 6 7 6 6 7 7 7 6 6 6 5 5 6 6
3 2 2 2 2 3 3 3 2 2 3 3 3 3 3 3 2 3 4 5 6 7 7 6 7 8 7 7 7 7 7 7 7 7 7 7 6 6 6 6 6 6
3 4 1 1 1 0 1 1 1 1 2 3 3 4 4 3 3 3 4 6 7 7 7 7 7 6 9 14 12 8 7 7 6 6 6 7 6 6 6 6 6 6
3 2 2 3 3 3 1 1 2 2 2 3 3 3 3 3 3 3 3 5 7 7 8 8 7 7 12 13 14 15 8 6 6 6 5 6 6 6 7 7 6 6
5 4 3 4 3 3 2 2 3 3 2 2 2 3 3 3 3 3 2 2 3 5 7 8 8 10 13 12 12 12 9 6 6 6 6 6 7 7 7 7 7 7
5 4 3 4 4 4 4 4 4 3 3 3 4 3 2 2 3 2 2 2 2 3 5 6 6 9 12 12 12 13 14 11 7 6 6 6 6 7 7 7 6 6
4 4 5 5 4 4 4 4 5 5 4 3 3 4 4 3 3 3 3 3 3 3 3 3 3 4 7 9 10 11 12 11 7 8 8 8 8 7 7 7 7 7
4 4 4 4 3 3 5 5 4 5 6 5 5 5 5 5 5 4 3 3 3 3 2 3 3 7 4 3 2 4 6 7 5 5 6 7 7 7 7 8 7 7
6 5 4 4 4 3 3 3 3 4 4 4 4 6 6 7 7 6 6 5 4 4 3 3 2 5 4 5 6 5 1 1 3 4 5 6 7 6 7 7 7 7
7 7 7 7 6 6 7 5 4 2 2 2 3 2 2 4 5 6 6 6 5 4 4 4 4 6 6 5 8 9 4 4 3 3 4 5 6 5 5 6 6 6
6 6 7 6 6 7 6 6 5 5 4 1 1 3 1 2 2 2 3 5 6 5 5 4 4 6 8 7 6 8 6 5 4 4 5 5 6 5 5 5 6 11
5 5 5 5 6 6 6 7 6 6 5 5 4 3 3 3 3 4 3 3 1 4 8 6 4 4 4 4 4 6 7 5 6 5 5 6 5 6 5 5 5 6
5 5 5 5 6 6 6 6 5 6 6 6 5 4 4 3 4 3 4 4 2 2 2 3 4 5 5 4 1 4 6 5 5 6 6 6 6 6 6 5 5 5
Wind_Direction
176 178 180 173 179 181 172 177 192 193 203 195 199 210 202 214 202 201 203 190 195 199 207 208 206 208 208 197 180 203 181 197 213 216 214 237 272 281 308 319 328 307
182 177 180 179 181 172 175 180 180 187 197 198 205 204 212 204 208 200 200 201 206 212 207 205 207 204 200 189 171 173 209 198 260 168 173 248 266 284 274 294 300 300
181 171 170 179 194 196 184 185 189 190 188 200 200 199 206 206 206 205 205 198 208 219 210 206 208 206 198 196 176 180 200 213 236 217 121 224 262 273 272 295 305 304
188 183 176 179 187 203 188 174 191 203 198 191 201 204 200 203 198 204 209 205 204 218 218 206 212 207 200 204 188 193 200 211 219 171 198 263 250 259 292 305 305 317
186 187 181 174 177 187 184 186 192 195 196 203 203 200 203 205 198 205 206 213 205 216 212 212 211 210 199 203 195 199 200 217 223 181 194 259 265 238 256 263 308 317
189 187 187 182 181 180 189 195 198 194 203 203 210 199 203 203 200 199 203 206 208 211 212 209 205 212 196 196 196 207 205 210 226 196 213 231 260 244 233 231 275 299
192 191 198 196 191 190 192 196 196 199 201 208 200 212 205 206 208 208 202 205 206 207 211 209 206 210 203 191 192 207 218 218 218 201 219 243 239 270 262 237 234 245
154 148 162 175 206 213 212 204 203 200 206 206 208 220 204 212 211 215 210 207 206 208 212 215 215 212 204 191 199 206 219 213 220 209 219 240 240 258 268 257 233 233
166 173 172 175 180 186 205 215 209 209 206 209 215 222 215 215 216 212 209 207 211 211 208 214 218 222 212 198 203 204 214 222 216 209 216 229 233 243 254 260 258 243
177 177 176 174 176 174 188 199 195 194 189 209 228 235 225 222 218 215 207 204 209 212 210 213 216 221 221 214 211 206 210 219 221 218 218 224 228 237 245 245 247 259
176 176 184 183 177 172 184 180 205 223 207 203 209 222 231 230 229 215 207 202 209 211 210 211 216 214 217 220 220 212 213 219 221 221 224 227 228 230 234 233 244 244
181 175 186 194 200 197 193 197 202 210 238 266 220 217 221 218 217 219 210 208 210 214 211 212 213 213 216 219 218 215 214 220 224 223 226 228 233 233 235 231 232 238
178 190 190 195 209 214 202 203 219 222 220 238 258 262 223 215 217 214 217 219 219 212 214 214 215 214 216 220 224 221 217 216 223 227 228 228 231 233 234 232 233 239
181 187 190 203 211 210 206 206 210 221 223 223 220 250 265 256 232 220 222 210 222 221 220 215 215 217 218 220 223 223 220 221 220 225 227 226 229 231 232 234 233 234
307 240 195 195 196 200 211 213 206 224 244 241 226 229 234 235 254 252 234 222 219 217 225 223 217 219 216 216 219 226 222 225 222 224 226 229 230 231 229 230 234 236
281 294 343 71 75 53 358 332 284 253 253 258 251 234 231 232 239 251 242 229 219 217 215 218 223 222 222 218 215 216 219 223 223 223 225 230 234 238 242 234 233 233
90 12 30 62 66 71 42 347 311 299 291 282 279 269 256 258 241 259 260 244 229 216 211 214 220 223 223 219 219 221 216 215 218 221 217 224 229 231 240 242 244 239
99 91 57 56 60 57 60 63 60 45 5 331 310 292 275 255 255 251 270 282 261 238 224 218 218 220 220 218 220 225 225 222 217 221 217 216 223 227 233 236 242 246
64 71 73 60 56 47 24 27 52 61 41 6 341 314 306 294 273 272 268 285 307 280 245 235 229 225 220 217 213 214 215 216 225 222 223 226 224 228 233 235 237 245
71 68 57 51 36 43 52 33 15 33 40 19 354 358 3 338 323 318 317 319 314 307 316 327 300 290 230 229 228 222 219 209 227 228 231 232 229 228 233 235 233 235
45 61 60 53 51 43 47 44 28 14 27 21 5 360 358 1 348 336 318 304 313 321 332 340 345 4 329 308 271 229 236 217 239 241 243 245 241 238 238 241 239 233
23 26 34 41 38 28 43 50 30 7 5 13 15 355 359 358 357 356 353 341 331 329 329 335 336 9 353 320 310 305 275 225 233 241 249 258 261 257 254 253 252 247
27 33 33 30 27 27 20 8 354 334 357 37 28 342 3 358 345 334 332 337 348 359 359 345 346 346 342 321 312 322 320 298 280 268 260 259 260 262 263 263 259 252
29 37 38 29 28 23 10 2 356 350 338 347 282 272 240 224 265 295 306 326 334 352 1 2 342 349 5 351 337 314 308 291 276 263 272 273 280 279 275 274 272 274
33 40 38 33 25 12 5 359 354 347 340 333 304 278 260 227 218 233 240 232 296 338 339 333 326 330 358 338 318 304 312 300 290 280 282 282 282 284 281 268 274 272
28 25 24 26 16 3 357 351 345 345 345 336 323 309 292 284 275 261 267 273 224 192 228 290 312 310 313 313 259 283 273 272 287 285 275 270 268 264 274 277 271 278